Date,TemperatureHighF,TemperatureAvgF,TemperatureLowF,DewpointHighF,DewpointAvgF,DewpointLowF,HumidityHigh,HumidityAvg,HumidityLow,PressureMaxIn,PressureMinIn,WindSpeedMaxMPH,WindSpeedAvgMPH,GustSpeedMaxMPH,PrecipitationSumIn
2013-1-1,46.0,35.7,25.0,18.0,14.8,12.0,66,44,26,30.56,30.42,7,1,13,0.00
2013-1-2,49.0,37.4,27.0,17.0,15.1,13.0,59,42,25,30.52,30.35,5,1,10,0.00
2013-1-3,50.0,38.9,26.0,15.0,9.6,3.0,56,32,14,30.54,30.41,6,1,12,0.00
2013-1-4,49.0,36.7,26.0,11.0,9.0,7.0,48,33,18,30.56,30.45,3,0,8,0.00
2013-1-5,49.0,37.5,27.0,14.0,11.6,9.0,51,35,22,30.59,30.38,4,0,6,0.00
2013-1-6,50.0,39.8,33.0,20.0,15.5,12.0,51,38,25,30.38,30.14,3,0,7,0.00
2013-1-7,59.0,44.5,33.0,26.0,16.8,9.0,65,37,14,30.28,30.16,13,2,22,0.00
2013-1-8,62.0,48.5,35.0,30.0,23.7,13.0,57,38,29,30.40,30.22,6,1,11,0.00
2013-1-9,59.0,47.7,38.0,32.0,29.0,28.0,68,50,32,30.40,30.02,3,0,6,0.00
2013-1-10,55.0,46.4,37.0,34.0,21.7,3.0,63,39,19,30.03,29.81,15,6,25,0.00
2013-1-11,45.0,36.4,28.0,18.0,10.4,6.0,45,34,21,30.22,30.03,12,2,19,0.00
2013-1-12,41.0,32.6,24.0,11.0,6.5,1.0,54,34,20,30.34,30.21,8,1,13,0.00
2013-1-13,36.0,28.6,19.0,7.0,4.8,0.0,56,37,24,30.44,30.32,12,2,23,0.00
2013-1-14,36.0,29.4,23.0,5.0,-0.7,-3.0,40,28,18,30.66,30.44,14,8,25,0.00
2013-1-15,43.0,31.2,20.0,13.0,7.3,2.0,46,37,26,30.79,30.65,4,0,10,0.00
2013-1-16,54.0,39.0,27.0,22.0,17.8,11.0,59,43,28,30.73,30.54,4,0,9,0.00
2013-1-17,58.0,42.4,30.0,19.0,14.9,13.0,56,36,17,30.63,30.47,3,0,7,0.00
2013-1-18,57.0,42.9,31.0,16.0,14.6,13.0,47,33,19,30.55,30.41,4,0,7,0.00
2013-1-19,59.0,44.0,31.0,17.0,13.2,10.0,47,30,16,30.56,30.40,4,0,7,0.00
2013-1-20,63.0,45.6,33.0,15.0,12.6,10.0,40,27,14,30.47,30.33,3,0,6,0.00
2013-1-21,63.0,46.1,32.0,13.0,10.6,8.0,39,25,12,30.47,30.33,3,0,7,0.00
2013-1-22,63.0,48.1,35.0,17.0,12.8,8.0,36,25,15,30.42,30.31,4,1,6,0.00
2013-1-23,61.0,49.7,40.0,22.0,17.3,13.0,38,28,18,30.40,30.28,3,0,6,0.00
2013-1-24,55.0,51.2,48.0,44.0,36.8,21.0,79,59,30,30.39,30.26,6,0,8,0.03
2013-1-25,61.0,54.0,48.0,49.0,43.6,41.0,88,69,51,30.39,30.14,4,0,10,0.05
2013-1-26,58.0,51.6,47.0,51.0,48.7,45.0,95,90,74,30.15,29.94,4,0,6,0.38
2013-1-27,59.0,52.3,44.0,47.0,38.6,29.0,95,61,46,30.00,29.92,17,9,27,0.01
2013-1-28,49.0,44.5,41.0,31.0,19.7,10.0,62,38,23,30.22,29.99,14,5,24,0.01
2013-1-29,55.0,44.8,34.0,30.0,24.7,18.0,66,46,33,30.41,30.17,6,2,14,0.00
2013-1-30,61.0,47.0,36.0,33.0,29.7,27.0,73,53,31,30.50,30.37,3,0,9,0.00
2013-1-31,63.0,53.0,38.0,35.0,33.3,31.0,78,49,32,30.46,30.31,2,0,7,0.00